Wind_Speed
36 36 36 36 35 34 33 32 31 31 32 32 32 33 33 33 35 36 38 39 41 42 44 46 47 48 49 51 53 55 57 59 60 61 63 65 66 67 67 67 66 64 62 62 62 61 62 63 65 65 64 62 58 54 49 46 43 41 39 37 35 33 32 32 32 32 32 30 29 29 29 29 31 32 34 34 34 35 38 38 38 39 38 38 39 41 43 44
36 36 36 36 35 34 33 32 32 32 33 33 34 34 34 36 37 39 40 42 43 45 47 48 49 50 51 53 55 58 59 61 62 63 64 65 66 66 65 64 62 61 61 61 62 62 63 64 62 59 54 49 45 41 37 35 33 32 31 29 28 27 28 28 28 29 30 29 29 28 29 30 33 35 36 38 38 37 39 41 41 42 42 41 41 42 45 47
37 37 36 36 35 34 33 32 33 34 34 35 35 36 37 38 39 41 42 44 46 47 48 49 50 52 54 56 58 60 61 62 64 64 65 65 65 63 62 61 60 60 61 61 62 62 60 56 51 46 41 37 34 32 29 27 26 26 26 25 25 25 26 27 28 29 30 31 31 31 32 34 36 37 38 41 42 41 42 43 44 45 46 45 44 45 47 49
36 36 36 35 34 33 33 33 34 35 36 36 37 38 39 40 42 43 44 46 47 48 49 51 53 55 57 58 60 61 62 63 64 64 64 63 61 60 60 60 60 60 61 60 58 54 49 44 39 35 32 30 28 25 24 23 23 24 25 26 26 26 27 29 30 31 32 33 34 35 38 40 40 41 42 43 46 46 46 46 47 48 50 50 50 49 50 52
36 36 35 34 34 33 33 34 36 36 37 38 39 40 41 42 43 45 46 47 48 50 51 53 55 57 59 60 61 62 63 63 63 62 60 60 59 59 59 59 60 59 56 52 47 41 37 34 31 28 26 25 24 23 23 23 24 25 26 28 28 29 30 32 34 34 35 36 37 39 42 44 44 45 46 47 49 50 50 50 50 52 53 55 55 55 55 56
35 34 34 33 33 33 34 35 36 37 38 39 40 41 42 43 45 46 47 49 50 52 54 56 57 59 60 61 62 62 61 60 59 58 57 57 57 58 58 58 55 50 45 40 35 32 29 27 26 25 24 24 24 24 24 25 27 28 29 30 31 33 34 36 37 39 39 40 41 44 46 48 49 50 51 51 52 52 53 54 55 55 57 58 59 60 61 61
33 32 32 32 32 33 34 36 37 38 40 40 41 42 44 45 46 48 49 51 52 54 56 57 58 59 60 60 59 59 57 56 56 55 56 56 57 56 54 49 44 38 34 31 28 26 25 24 24 23 24 24 25 26 27 28 29 31 32 34 35 36 38 39 41 42 43 44 45 47 50 51 53 54 55 55 55 56 57 58 59 59 60 62 63 64 66 67
31 31 32 32 33 34 34 36 38 39 40 41 42 44 45 46 48 49 51 53 54 56 57 57 58 58 57 56 55 54 54 54 54 55 55 55 52 48 43 37 33 30 27 25 24 23 23 23 24 24 25 27 28 29 30 31 33 34 35 37 38 39 41 43 44 46 47 48 49 51 54 55 57 58 59 59 59 60 61 62 63 64 65 66 67 69 70 71
31 31 32 32 33 34 35 36 38 40 41 42 44 45 47 48 50 52 53 54 55 55 55 55 54 54 53 52 52 52 52 53 54 53 50 46 41 36 31 28 26 24 23 22 22 22 23 24 26 27 28 29 30 32 33 34 36 37 39 40 42 43 45 47 48 50 52 53 53 55 58 59 61 63 63 64 64 65 66 67 68 69 70 72 73 74 75 76
31 32 32 33 33 35 36 38 40 41 42 43 45 47 48 50 51 52 53 53 52 52 51 50 50 50 50 50 50 51 52 51 48 44 39 33 29 26 23 22 21 21 21 22 23 24 26 27 28 29 31 32 33 35 36 38 39 41 43 44 46 47 49 51 53 55 57 58 59 60 62 65 66 67 68 69 69 70 71 72 74 75 76 77 78 79 80 81
31 31 32 33 35 37 38 40 41 42 44 45 47 48 49 50 50 49 49 48 48 47 47 47 47 48 48 49 50 48 45 41 35 31 26 22 21 19 19 19 20 21 23 24 25 27 28 29 31 32 34 35 37 39 40 42 43 45 47 49 51 52 54 55 58 60 62 63 64 65 67 69 71 72 73 74 74 75 77 78 80 81 82 83 83 84 85 85
30 31 33 35 37 38 39 41 42 43 45 46 46 46 46 46 45 44 44 44 44 44 45 46 47 47 47 45 42 37 32 27 24 21 18 17 18 18 19 21 22 24 25 27 28 29 31 32 34 36 37 39 41 43 45 47 48 50 51 53 55 57 58 60 61 64 66 68 70 71 72 73 76 77 77 78 79 81 82 84 85 86 87 88 89 89 90 91
31 32 34 36 37 38 39 40 41 42 42 42 42 42 41 41 41 41 41 42 42 43 44 45 44 41 37 32 27 23 21 19 17 16 16 17 19 20 22 23 25 26 28 29 31 33 34 36 38 40 42 43 45 47 49 51 52 54 56 57 59 60 62 64 66 67 69 72 74 75 77 78 80 82 82 83 83 85 87 88 89 90 91 92 93 93 94 95
29 31 32 33 35 35 36 37 38 38 38 37 37 37 37 38 38 39 40 41 42 41 39 36 31 27 22 19 17 16 15 15 16 17 18 20 21 22 24 26 28 29 31 33 34 36 38 40 42 44 46 47 49 51 53 55 56 58 60 62 64 65 67 69 71 73 74 76 77 79 80 81 83 85 86 86 86 88 89 90 91 92 93 94 94 95 96 96
27 28 29 30 31 32 33 33 33 34 34 34 34 34 35 36 37 38 38 37 33 29 25 21 18 16 14 13 13 13 14 16 17 19 21 22 23 25 27 29 31 33 35 36 38 40 42 44 46 48 50 52 53 55 57 59 60 62 63 65 67 69 71 72 74 75 77 78 79 80 81 82 84 86 87 87 88 89 90 91 92 93 94 94 95 95 96 96
25 26 27 27 28 29 29 29 30 30 30 31 32 33 34 34 34 31 27 23 18 15 13 12 12 11 11 12 13 15 17 18 20 22 23 24 26 28 30 32 35 36 38 40 42 44 46 48 49 52 54 55 57 59 60 62 64 65 67 68 69 70 72 74 75 77 78 79 80 80 81 82 83 85 87 88 88 89 90 91 91 92 93 93 94 94 94 95
22 23 24 24 25 25 26 27 27 28 29 30 31 30 28 25 20 16 13 10 9 9 9 9 9 10 12 14 16 18 20 21 23 25 26 28 30 32 34 36 38 40 42 44 46 48 50 51 53 55 57 58 60 61 63 64 65 66 68 69 70 70 71 73 75 77 78 79 80 80 80 81 82 84 85 87 87 87 88 88 89 90 90 91 91 92 92 93
20 21 21 22 23 24 25 26 26 26 26 24 21 18 14 10 7 6 5 5 6 7 8 9 11 13 15 17 18 20 23 25 27 29 30 33 34 36 38 40 42 44 46 48 50 51 53 54 56 57 59 60 61 62 63 64 65 66 67 68 69 70 70 70 72 74 76 78 79 79 79 80 82 83 84 86 86 87 87 87 88 88 89 90 90 91 91 92
19 20 21 21 22 22 22 21 19 16 13 11 8 6 3 2 2 2 3 4 6 8 10 12 14 15 17 19 21 24 26 28 30 32 34 36 38 40 42 44 45 47 49 50 52 54 55 56 57 58 59 60 61 62 63 64 65 65 65 65 66 68 69 69 70 71 73 75 78 78 78 80 82 83 84 86 87 87 87 88 88 88 89 90 91 91 92 92
18 18 18 17 16 14 12 10 7 6 5 4 3 3 2 1 1 2 4 6 8 10 12 15 16 18 21 23 25 27 30 32 34 35 37 39 41 43 45 46 47 49 51 52 53 54 55 56 57 58 58 59 60 61 62 62 63 63 63 63 64 66 67 68 69 70 72 74 77 79 79 80 82 84 86 89 89 90 90 90 90 90 90 92 93 94 94 94
13 12 10 9 8 7 7 7 7 6 6 5 4 3 2 0 2 4 7 9 11 14 16 18 20 22 24 26 29 31 33 35 37 39 40 42 43 45 46 48 49 50 51 52 53 54 55 56 57 57 57 58 58 59 59 60 60 60 61 62 63 64 67 69 70 71 73 76 79 81 82 83 85 88 90 93 94 94 95 96 97 97 97 97 98 98 99 100
9 10 10 10 10 10 10 10 9 8 7 5 4 2 2 4 6 8 10 12 15 17 19 22 23 26 28 30 32 34 36 38 39 41 42 44 45 46 47 48 49 50 50 51 52 53 54 55 55 56 55 55 56 56 57 58 58 60 61 63 64 65 67 70 73 75 77 79 81 84 85 86 88 90 93 96 97 98 100 101 102 103 104 104 104 104 105 105
14 14 14 14 13 13 12 10 9 7 6 4 4 4 6 8 10 12 13 15 18 20 22 25 27 29 31 33 35 36 38 39 41 42 44 45 45 46 47 48 49 49 50 51 52 52 52 53 53 52 52 53 54 55 56 58 60 61 63 65 67 69 70 71 74 77 80 83 85 86 87 88 90 92 94 97 99 100 101 103 104 106 107 107 107 108 107 108
18 17 16 15 14 12 11 9 8 6 6 5 6 7 9 11 13 15 17 19 21 23 25 28 29 31 33 34 36 38 39 40 41 42 43 44 45 46 47 48 48 49 49 49 50 49 49 49 49 50 51 53 55 57 59 61 63 65 67 68 70 72 74 75 75 78 81 84 88 89 88 89 90 92 95 97 99 100 101 103 104 105 107 108 109 109 109 109
19 18 16 14 13 11 9 8 7 6 7 7 8 10 12 14 16 18 20 22 24 26 28 30 31 32 34 35 37 38 39 40 41 42 43 44 45 46 47 47 47 47 46 46 46 46 47 48 50 52 54 56 58 60 62 64 65 68 69 71 72 74 76 78 79 80 81 84 88 90 90 89 90 92 95 98 99 100 102 103 104 105 106 108 109 110 110 111
18 16 14 13 11 9 8 7 7 7 8 9 11 13 15 17 19 21 23 24 27 28 29 31 32 33 34 35 37 38 39 40 41 43 44 45 45 45 44 44 44 43 44 44 44 46 49 51 53 55 57 59 61 63 64 66 67 69 71 73 74 76 77 79 80 81 82 84 87 90 91 91 90 91 95 97 98 100 102 103 103 105 106 107 108 110 112 113
16 14 12 11 9 8 7 7 8 9 10 12 14 16 17 19 21 23 24 26 28 29 30 31 32 33 35 36 37 38 40 41 42 42 42 41 41 41 41 41 42 42 43 45 47 49 51 53 55 57 59 61 63 65 67 68 69 71 72 74 75 77 78 80 81 82 82 83 86 89 90 90 89 91 94 95 97 98 99 100 102 104 105 106 108 110 112 113
14 12 10 9 8 8 8 9 10 11 13 15 16 18 19 21 22 24 25 26 28 29 30 31 33 34 35 37 38 40 40 40 40 39 38 38 38 38 39 40 41 43 45 47 49 51 53 55 58 60 62 64 65 67 69 70 71 72 73 75 76 77 78 80 80 81 80 81 84 87 88 88 86 87 91 93 94 96 97 98 100 102 103 105 107 109 110 111
11 10 8 8 8 8 10 11 13 14 15 17 18 19 20 22 23 24 25 27 28 29 31 33 34 35 37 38 38 38 37 36 36 36 37 38 39 39 40 41 42 44 46 49 51 53 56 58 60 62 64 66 67 69 70 71 72 73 74 75 76 77 77 78 78 78 77 76 79 81 83 84 83 84 88 92 93 94 95 97 98 99 101 102 104 105 106 106
9 8 8 9 10 11 12 13 14 16 16 18 19 20 21 23 24 25 26 28 29 31 32 34 35 36 36 35 34 32 32 32 33 34 36 37 39 41 42 43 44 46 49 51 54 56 58 60 62 64 65 67 69 70 71 72 73 73 74 73 73 74 74 75 75 74 72 69 72 76 78 81 84 85 89 91 92 92 93 94 95 96 98 99 100 100 100 101
9 9 10 11 12 13 14 15 16 17 18 19 20 21 22 23 24 26 28 29 31 32 33 34 33 32 31 29 28 29 30 31 33 35 37 39 41 44 46 48 50 52 54 55 57 59 60 62 63 65 66 68 69 70 71 72 72 72 72 72 71 70 69 69 69 69 68 67 70 74 76 79 84 87 88 89 90 90 91 92 93 94 95 95 95 95 96 96
11 11 12 12 13 14 15 16 17 18 19 20 21 22 23 24 25 27 29 31 32 32 31 30 28 27 26 26 27 29 31 33 35 37 40 42 44 47 49 50 52 54 55 57 58 59 60 62 63 64 65 66 67 68 69 69 70 70 70 71 71 69 68 67 67 67 65 65 68 71 72 75 80 84 85 85 86 87 88 90 92 92 92 92 92 92 92 92
12 12 13 14 15 16 17 17 18 19 20 21 22 24 24 25 27 29 31 31 30 29 27 25 25 25 26 27 29 31 33 35 37 39 41 43 45 46 48 50 51 53 54 56 57 59 60 61 62 62 63 64 64 65 65 66 67 68 69 71 72 72 71 70 69 68 65 62 64 68 70 73 77 79 80 80 81 82 84 87 89 90 89 88 87 87 87 88
13 13 14 15 16 17 17 18 19 20 21 22 23 24 25 27 29 30 30 29 26 24 23 23 24 26 28 30 32 33 35 37 39 41 42 44 46 48 49 50 52 53 54 56 57 58 59 60 60 61 61 62 62 63 64 65 66 67 69 70 71 73 73 73 73 73 71 67 65 68 72 76 80 80 80 81 81 82 84 86 87 87 85 84 83 84 85 85
14 15 16 16 17 17 18 19 20 22 23 24 25 26 27 29 29 28 26 24 23 22 22 23 25 28 30 32 33 35 37 39 41 42 44 46 47 49 50 51 52 53 55 57 58 59 59 59 59 60 60 61 62 63 63 64 65 65 66 68 69 71 72 73 74 75 76 72 69 71 74 80 85 83 82 83 83 84 85 86 87 86 85 85 85 86 85 84
16 17 17 17 18 19 20 21 22 23 25 26 27 28 28 28 26 24 22 21 20 21 22 24 26 28 31 33 35 37 39 41 43 44 46 47 48 49 50 51 52 53 54 55 56 58 58 58 59 59 60 61 61 62 62 62 63 63 65 66 68 70 71 72 72 73 75 73 72 73 75 82 87 86 84 85 84 85 86 88 90 89 87 87 87 86 84 82
17 18 18 18 19 20 21 22 24 26 27 28 28 27 26 24 22 21 20 19 20 22 24 26 28 30 33 35 38 40 42 44 45 46 48 49 49 50 51 51 51 51 52 53 53 55 56 57 58 58 59 59 59 60 60 60 61 62 64 65 67 68 70 72 74 74 74 74 73 74 76 83 89 88 87 87 87 89 90 91 92 90 89 87 86 84 82 81
18 18 19 20 21 22 23 25 27 28 28 28 27 24 22 21 20 19 19 20 22 24 27 29 32 34 36 39 42 44 45 47 48 49 50 50 50 50 50 49 49 50 50 51 51 52 53 54 55 55 55 56 57 58 58 58 59 61 64 66 67 68 69 72 76 78 79 78 77 75 77 86 91 90 90 90 91 94 94 93 92 90 89 87 84 82 79 77
19 19 20 21 22 24 26 28 29 29 28 27 24 21 20 19 18 18 20 22 25 28 30 33 35 37 40 42 44 46 47 48 49 50 50 49 49 48 48 48 48 48 48 48 48 48 49 50 51 53 54 54 55 56 57 57 58 61 63 65 67 69 70 72 76 79 81 81 81 78 78 88 94 93 94 93 93 97 97 95 93 89 87 85 82 80 77 74
20 21 22 23 25 27 29 30 29 28 26 23 20 19 18 18 19 21 23 25 28 31 33 36 38 40 43 44 46 47 48 49 49 48 48 48 47 47 47 46 46 46 46 45 45 46 46 48 49 50 52 53 54 54 55 57 60 62 63 64 66 69 70 71 72 75 78 80 83 83 81 88 95 95 95 94 93 97 99 97 93 88 85 83 81 79 76 73
21 22 24 26 28 30 30 29 28 26 23 20 19 18 19 20 22 24 26 29 31 33 36 38 40 42 44 45 46 47 47 47 47 47 47 47 47 46 45 45 44 44 44 45 46 46 47 49 49 50 52 52 53 55 58 60 62 64 65 65 67 69 70 72 72 73 76 80 84 85 85 90 96 96 96 94 93 95 97 96 92 85 82 81 79 77 75 73
23 24 26 28 30 30 29 27 25 22 20 19 19 20 21 23 25 27 29 31 33 35 38 40 42 43 44 45 45 45 45 46 46 46 46 46 46 45 45 45 46 46 46 47 48 49 50 51 52 54 56 57 58 60 62 63 63 64 66 66 68 71 73 75 76 75 77 81 84 83 84 90 97 98 97 96 93 94 96 95 90 83 80 80 79 76 73 70
25 26 28 30 30 28 27 25 23 20 19 19 21 22 24 26 27 29 31 33 34 36 38 41 42 43 43 43 43 43 44 44 45 45 45 46 46 47 47 48 48 49 49 50 51 53 54 55 55 57 60 62 63 63 65 67 67 67 68 69 71 74 75 77 79 78 78 83 87 85 81 85 93 97 97 95 92 91 94 94 89 83 79 77 76 75 72 68
26 29 31 31 29 27 25 23 21 20 21 22 24 26 27 28 30 31 32 34 35 37 39 41 41 41 41 42 42 43 44 45 46 47 48 48 48 49 50 50 51 52 53 55 57 59 61 63 63 62 62 62 62 64 68 71 74 75 76 76 77 78 79 80 81 79 78 82 90 91 85 83 88 93 94 93 91 89 91 91 88 85 81 77 74 73 72 69
29 31 32 30 27 26 24 22 21 22 24 26 27 28 29 30 31 32 33 35 37 39 40 40 40 41 42 43 43 45 47 48 49 50 51 51 52 53 54 55 56 58 59 61 63 66 68 71 73 72 71 70 70 72 76 78 81 82 82 82 81 80 81 84 84 82 80 82 88 93 91 84 85 89 90 90 89 89 89 88 84 82 81 79 76 73 70 68
31 32 30 28 26 25 23 22 23 25 27 28 29 29 31 31 32 33 35 36 38 40 40 40 42 43 45 46 47 49 51 52 53 53 54 55 57 58 59 61 62 64 65 67 69 71 73 75 79 80 79 80 80 81 83 84 85 85 84 84 84 82 82 86 87 85 84 84 84 91 95 91 89 90 91 89 88 88 89 87 82 80 79 79 77 74 72 69
32 31 29 27 25 24 23 24 25 27 28 29 30 31 32 32 33 35 36 38 40 42 43 44 46 47 48 50 51 53 54 55 56 58 59 61 62 64 65 66 68 69 70 72 73 75 77 78 81 83 84 84 84 84 85 86 86 86 86 86 86 85 83 86 89 87 88 89 86 87 93 94 93 93 93 91 87 86 87 85 82 80 79 78 77 75 73 70
31 29 27 25 24 23 23 25 27 29 30 30 31 31 32 32 34 36 38 41 43 44 46 47 48 50 51 53 55 56 58 59 61 62 64 65 67 68 69 70 72 72 73 75 76 78 79 80 82 85 86 86 86 86 86 87 87 87 87 88 88 87 85 87 89 88 89 93 92 90 92 96 97 96 95 92 88 86 86 86 83 81 79 78 77 75 72 68
30 27 25 24 23 22 24 26 29 30 30 30 30 31 32 34 35 38 41 43 45 46 47 48 50 51 53 55 56 58 60 62 63 65 66 68 69 70 72 72 74 74 75 77 78 80 81 82 83 85 87 87 88 88 87 87 88 88 88 89 89 88 87 89 91 89 89 93 96 96 95 96 97 97 96 95 92 89 88 86 84 81 78 76 74 72 71 68
27 25 23 23 22 23 26 28 29 29 28 29 30 31 33 36 38 41 43 44 46 47 48 49 51 53 54 56 57 59 61 62 64 66 68 69 71 72 73 74 75 76 77 79 80 82 83 84 85 86 87 88 88 89 89 88 89 89 89 89 89 89 89 92 94 93 91 91 93 96 97 96 96 96 96 97 96 92 88 85 84 81 77 73 70 68 67 67
25 23 22 22 23 25 27 28 27 27 27 29 31 33 36 39 41 42 44 44 46 47 49 50 52 54 55 57 58 60 62 63 65 67 68 70 72 73 74 75 76 78 79 81 82 83 84 85 85 86 87 89 89 90 89 89 89 90 89 89 90 91 92 94 98 98 97 96 95 96 98 98 97 95 93 93 92 90 87 85 83 80 76 73 70 66 64 63
22 21 22 23 24 26 27 26 26 27 28 30 32 35 38 41 42 43 44 45 46 48 50 52 53 55 56 57 59 61 62 64 66 67 69 71 73 74 76 77 78 80 81 83 84 85 85 86 86 86 87 88 89 91 91 90 90 90 90 90 91 92 92 94 97 98 99 102 101 100 100 99 97 94 91 88 87 86 85 83 82 79 75 73 70 65 62 61
Wind_Direction
218 220 223 226 229 231 234 238 241 245 249 253 256 260 263 267 270 273 274 276 278 280 281 282 283 285 287 289 291 292 293 293 293 294 294 294 294 294 294 295 295 295 296 296 296 296 296 296 296 296 296 295 295 295 294 294 293 292 292 291 290 289 288 287 287 287 286 285 284 283 285 285 282 279 278 276 274 272 272 272 272 271 270 268 268 269 271 272
220 222 225 227 230 234 237 241 246 250 254 258 261 264 267 270 272 274 276 277 279 280 281 283 285 287 289 290 291 292 292 293 293 293 293 293 293 294 294 295 295 295 295 296 296 297 297 296 296 296 296 295 295 296 295 296 295 294 293 291 290 290 289 289 289 288 289 288 287 287 286 282 279 278 278 277 275 274 274 274 273 273 272 271 271 272 273 274
221 225 228 230 233 237 241 245 250 254 258 261 264 267 270 271 273 274 276 277 279 280 282 285 287 288 289 290 290 291 292 292 293 293 293 294 294 294 294 295 295 296 296 296 297 297 296 296 296 296 296 296 296 297 297 296 296 294 293 292 292 292 292 292 291 290 290 290 290 288 285 280 277 276 277 277 277 275 274 274 275 275 275 274 273 272 272 273
223 226 230 233 237 240 244 248 252 256 259 262 265 268 270 271 273 274 276 278 280 282 284 286 287 288 289 290 291 291 292 292 292 293 293 294 294 294 294 295 295 296 296 296 296 296 295 296 296 297 297 297 297 296 296 296 295 295 295 295 295 295 294 292 290 289 288 288 287 286 283 280 279 278 277 276 277 277 276 276 276 276 277 276 275 273 272 271
223 228 231 234 238 242 246 250 253 257 260 263 265 267 269 271 273 276 278 280 282 284 285 286 287 288 289 290 291 291 291 292 292 293 293 293 293 294 295 295 296 296 296 295 295 295 296 297 298 298 297 296 296 297 298 299 298 298 297 296 295 294 292 289 287 286 286 285 285 283 281 281 281 280 278 277 277 278 279 279 278 278 278 278 278 277 275 273
225 229 232 236 240 243 247 250 254 258 261 263 265 268 270 273 275 277 279 281 283 284 285 286 287 288 289 289 290 290 291 291 291 292 292 293 293 294 295 295 295 295 295 295 296 297 298 299 298 298 299 300 302 303 303 302 300 298 296 295 294 293 291 289 288 287 286 285 284 283 282 282 282 281 280 280 280 280 280 280 279 279 278 278 278 277 276 275
226 230 234 238 242 245 249 253 256 259 262 264 267 269 272 274 276 278 280 281 283 284 285 286 287 288 288 289 289 289 290 290 291 291 292 292 293 294 294 294 294 294 295 297 298 299 300 301 302 303 305 305 305 305 304 301 299 297 295 294 293 292 290 289 288 287 287 286 284 283 282 282 282 282 281 281 280 280 280 279 279 278 278 277 276 276 275 274
228 232 237 241 244 248 251 255 257 260 263 266 268 271 273 275 277 279 280 281 283 284 285 286 286 287 287 288 288 288 289 290 290 291 292 292 293 294 294 294 295 297 299 301 302 303 304 306 307 307 307 306 305 304 302 300 298 296 294 293 292 290 289 288 288 287 286 285 285 283 283 283 283 282 282 282 281 281 280 280 279 278 277 276 275 274 273 273
232 236 240 244 247 250 254 257 260 262 265 268 270 272 275 276 278 279 280 282 283 284 284 285 285 286 286 287 287 288 288 289 290 291 292 293 294 295 296 297 299 302 304 305 306 307 308 308 308 307 306 305 304 302 300 297 295 294 292 291 290 289 289 289 288 288 287 286 286 285 285 284 284 283 283 283 283 282 281 281 280 279 278 277 276 275 275 275
235 239 243 247 250 254 257 259 262 264 267 269 272 273 275 277 278 279 280 281 282 283 283 284 284 285 285 286 287 287 289 291 292 293 294 296 298 299 300 302 304 306 307 308 308 308 308 307 306 305 303 301 299 297 295 294 293 292 292 291 291 290 291 290 290 289 289 288 287 286 285 285 284 284 284 284 283 283 282 281 280 279 279 278 278 277 277 277
237 241 246 249 253 256 258 261 263 266 268 270 272 273 275 276 278 279 279 280 281 282 282 283 283 284 285 286 288 290 292 293 294 295 297 300 301 302 303 305 307 308 308 308 308 307 306 304 302 300 299 297 296 295 294 294 293 293 293 293 293 292 292 291 290 289 288 288 287 286 285 284 284 284 284 284 283 282 282 281 280 280 279 279 279 279 278 278
240 244 248 251 253 256 259 261 264 266 268 269 271 273 274 275 276 277 278 279 280 281 282 282 283 285 287 290 292 294 295 295 296 297 299 301 303 305 307 308 309 308 307 306 304 303 301 300 299 298 297 297 297 296 295 295 294 294 293 292 292 291 290 288 287 287 286 286 285 285 284 283 284 283 283 283 283 282 281 281 280 280 280 279 279 278 278 277
240 244 247 250 253 256 258 260 263 265 266 268 270 271 272 274 276 277 278 279 279 280 282 284 287 290 293 295 297 296 295 296 298 299 302 305 308 309 310 309 307 304 302 301 300 300 299 299 299 298 298 297 296 295 294 294 293 292 292 291 289 288 287 286 285 284 284 284 284 284 284 284 284 283 283 283 282 281 281 281 280 280 279 279 278 278 277 277
237 241 244 248 250 253 256 258 260 262 264 266 268 270 272 274 275 276 277 279 281 283 286 290 293 296 297 297 296 294 295 298 303 306 309 311 311 309 307 304 302 301 300 301 301 300 300 299 299 298 296 295 294 293 292 291 291 290 289 289 289 288 287 287 287 286 286 285 285 285 285 285 285 284 284 284 283 282 281 281 281 280 280 280 279 279 278 278
234 238 242 245 248 251 254 256 259 261 264 267 269 271 272 273 275 277 279 282 286 290 294 297 297 295 293 292 293 295 300 306 310 312 312 310 308 306 304 303 302 302 302 302 301 300 298 297 296 295 294 293 292 291 291 291 290 290 290 289 289 289 289 289 288 288 288 287 287 287 287 287 286 286 285 285 284 284 283 283 282 282 282 281 281 280 280 280
234 238 241 245 248 251 254 257 260 263 265 267 268 270 272 275 278 281 284 288 292 297 298 296 292 290 290 293 300 306 310 313 312 310 308 306 305 305 304 304 303 302 301 299 298 296 295 294 293 292 292 292 292 291 291 291 291 291 291 291 290 291 291 291 290 290 289 289 288 288 288 287 287 286 286 285 285 284 284 284 284 284 283 283 283 282 282 281
237 241 244 247 251 254 257 259 261 263 265 267 270 273 276 279 282 286 290 295 297 296 292 290 292 297 302 308 313 314 314 312 310 309 309 308 307 305 304 302 301 299 298 296 295 294 294 293 293 293 293 293 293 293 293 293 293 293 293 293 292 292 292 292 292 292 291 290 289 289 288 288 287 287 286 286 286 285 285 285 285 285 285 284 284 284 283 282
240 244 247 249 252 254 257 259 262 265 268 271 273 274 276 279 286 292 296 296 293 292 295 301 308 314 316 317 316 314 312 311 311 310 308 307 305 303 301 299 298 297 296 295 295 294 294 294 294 294 295 295 295 295 294 294 294 294 294 294 294 293 293 292 292 291 291 291 291 291 291 290 290 289 289 288 287 287 287 286 286 285 285 284 284 283 282 281
241 244 247 250 253 256 259 262 263 265 265 264 259 254 254 262 272 278 287 296 302 307 312 316 319 319 318 317 315 313 311 309 307 306 304 302 301 299 298 297 296 295 295 295 295 295 296 296 296 296 296 296 296 296 295 295 295 294 294 294 293 293 293 293 293 293 293 293 292 292 292 291 291 290 290 289 288 288 287 287 286 286 286 286 285 285 284 283
243 246 249 251 251 251 249 245 237 224 211 202 190 173 161 174 238 290 307 317 320 320 320 320 319 318 316 315 313 310 308 306 304 302 300 299 298 297 296 296 296 296 296 297 297 297 298 297 297 297 297 296 296 295 295 295 295 295 295 295 295 295 295 294 294 294 293 293 292 292 292 292 292 293 293 293 292 292 292 292 291 290 290 290 290 290 289 288
236 233 227 219 207 193 179 169 163 156 147 137 132 128 127 60 325 327 327 328 326 323 320 319 318 316 313 311 308 306 304 302 300 299 298 297 297 297 297 297 298 299 299 299 299 299 299 298 297 297 296 296 296 296 297 297 297 298 297 297 297 297 297 296 295 295 295 295 295 295 295 296 296 297 297 297 297 297 297 297 296 296 295 294 294 293 293 292
179 170 162 156 151 147 144 140 136 130 124 116 105 77 23 353 343 336 332 328 324 321 318 316 314 311 308 306 303 301 300 299 299 299 298 298 299 300 300 301 301 301 300 300 299 299 298 298 298 298 299 299 300 300 300 299 299 298 298 298 298 298 299 299 299 299 299 298 297 297 297 298 297 297 297 297 297 297 297 297 297 296 296 295 295 294 293 292
140 137 135 134 133 131 128 124 117 109 98 81 52 17 357 348 341 333 327 323 319 315 313 310 308 305 304 303 301 301 301 301 301 301 301 302 302 302 302 301 301 300 300 300 300 300 300 301 301 302 302 302 302 301 301 300 300 300 300 300 301 300 300 299 299 299 299 298 297 297 296 296 296 295 294 295 295 295 295 295 294 294 294 293 293 293 292 292
125 125 124 122 120 117 111 103 95 83 64 41 16 358 347 339 333 327 321 317 313 311 309 306 305 304 303 303 303 302 302 302 302 302 303 303 302 301 300 300 300 301 301 301 302 303 303 303 303 303 304 304 304 304 303 303 303 303 302 302 301 300 300 299 298 297 297 296 296 295 295 294 294 293 292 292 292 292 292 292 292 292 292 292 292 292 292 292
119 117 114 110 106 100 93 84 72 55 33 14 356 345 337 330 325 319 315 313 310 308 307 306 306 305 304 304 303 303 304 304 304 303 302 301 301 301 302 302 303 303 303 304 304 305 304 305 306 306 307 307 306 305 304 303 303 302 302 301 300 300 299 298 297 296 294 293 293 294 293 293 292 291 291 292 292 292 292 292 292 292 292 292 292 292 292 292
111 108 103 98 92 83 73 59 41 25 10 355 342 335 329 323 319 316 314 312 310 308 307 306 306 305 305 305 305 306 306 304 303 303 303 304 304 305 305 306 306 306 306 307 307 308 309 310 309 308 307 305 304 303 302 302 302 301 301 300 299 298 297 296 296 295 294 293 293 294 293 293 293 292 292 293 293 292 292 292 292 292 291 291 291 291 291 292
102 98 93 85 75 62 46 29 15 3 351 341 334 329 325 320 318 315 313 311 309 308 307 307 307 308 309 309 308 307 306 305 306 307 307 307 307 307 308 309 310 311 312 313 312 311 310 309 308 306 304 303 303 302 302 302 301 300 300 299 298 297 297 296 295 295 295 295 295 295 295 295 295 294 294 293 293 293 292 291 291 290 290 290 290 290 291 291
93 87 79 68 54 38 21 7 357 349 340 335 331 326 322 319 316 313 311 309 309 309 309 310 311 311 311 309 307 307 308 309 309 309 309 308 308 310 312 314 316 316 315 314 312 310 308 307 305 305 304 304 303 303 302 302 301 300 299 298 298 298 297 297 297 298 298 298 297 297 297 297 297 296 295 293 292 292 291 291 290 290 290 290 290 290 290 291
81 73 62 46 30 15 3 355 347 342 337 332 327 323 320 316 313 312 311 312 313 313 314 314 314 312 311 310 311 312 313 314 314 314 316 316 316 317 317 316 316 315 313 311 309 308 307 306 305 305 305 304 304 303 302 301 301 300 300 300 300 301 300 300 301 301 302 303 302 300 300 299 298 296 294 293 293 292 292 291 291 291 290 290 290 290 290 290
67 54 38 22 11 1 354 349 343 339 333 328 324 321 318 316 316 317 317 318 318 317 316 315 314 314 314 316 317 317 317 318 320 320 321 321 319 317 316 314 314 313 312 311 310 309 308 307 306 306 305 305 304 303 303 303 303 303 303 303 304 304 304 305 305 306 306 306 304 302 301 300 298 295 294 293 293 293 293 293 293 292 291 291 291 292 292 292
43 29 18 9 1 354 349 344 340 335 330 327 324 322 321 321 322 321 319 319 318 317 316 316 316 317 318 319 318 318 319 321 321 321 320 319 317 317 317 317 317 316 314 313 311 310 308 307 307 306 306 306 306 307 307 307 307 307 307 307 307 307 306 306 305 304 304 305 304 302 301 301 299 296 295 295 296 297 297 297 296 295 294 294 294 294 294 294
24 16 8 1 355 350 347 343 338 334 330 328 326 326 328 326 322 318 317 318 319 319 319 320 321 321 321 321 322 323 324 324 323 323 322 321 320 319 319 318 316 314 313 312 310 309 308 308 307 308 308 309 309 310 310 310 310 311 310 309 308 306 304 303 301 299 301 305 308 307 304 302 300 299 299 299 300 301 301 299 298 297 297 297 298 297 296 295
14 8 2 357 354 350 346 341 337 334 332 331 331 333 330 321 316 318 320 322 322 323 324 325 326 327 327 327 327 328 327 326 325 324 322 321 319 318 317 316 314 313 312 311 310 310 311 311 311 312 312 311 311 311 311 311 312 312 312 311 309 307 307 306 305 304 304 308 313 313 311 307 303 302 302 303 303 302 301 300 300 300 300 300 300 299 298 298
8 3 360 357 353 348 344 340 338 337 336 335 333 329 321 317 320 324 325 326 326 328 330 332 333 332 332 332 331 330 328 326 325 324 323 322 321 321 320 319 318 317 316 315 314 314 314 315 315 315 314 314 313 313 314 315 316 316 315 314 313 313 314 315 315 314 314 315 318 318 317 313 308 307 308 308 307 306 304 303 302 302 303 303 303 303 303 303
5 2 360 356 351 346 344 343 342 341 338 334 327 322 322 325 329 329 329 331 333 336 337 338 338 337 336 334 332 330 329 328 328 327 327 327 326 326 325 323 322 321 320 320 319 319 319 319 318 317 317 317 317 317 319 319 319 318 317 316 316 317 319 320 319 319 318 320 322 321 320 317 313 312 313 312 311 310 308 307 307 307 308 309 309 309 309 308
4 1 357 352 349 348 348 346 343 341 336 329 325 328 333 334 333 332 334 337 338 341 341 340 340 338 336 334 333 333 333 333 334 333 333 332 331 330 329 328 326 325 324 323 323 323 322 321 320 320 320 320 320 321 321 321 321 320 319 318 320 321 322 321 319 319 318 320 322 323 321 318 315 315 314 314 314 313 313 313 312 312 313 313 313 313 311 309
3 358 354 351 351 351 348 344 342 339 334 331 335 340 340 337 336 338 340 341 343 343 343 342 340 339 338 338 339 339 339 339 339 338 337 336 335 334 332 331 329 328 327 327 326 325 323 323 322 323 323 323 323 324 324 325 324 323 322 323 323 324 323 322 320 319 319 320 323 324 324 321 317 317 317 318 319 318 317 316 315 315 316 316 316 314 312 310
360 355 353 353 353 350 345 343 342 339 338 341 345 346 343 342 343 345 346 347 348 347 346 345 344 344 344 344 344 344 344 343 343 342 341 339 338 336 335 334 332 332 331 330 329 327 326 325 325 326 326 325 326 328 328 328 328 327 327 327 327 325 325 324 324 323 323 324 323 323 327 326 321 320 322 322 322 320 318 317 317 318 319 318 317 314 312 311
357 356 356 355 351 347 345 345 344 343 346 351 352 350 349 350 350 351 353 353 353 351 350 349 348 348 348 348 348 347 346 346 345 344 343 341 340 339 338 338 337 336 335 333 332 331 330 330 330 330 329 330 332 333 332 331 331 331 331 331 330 328 328 328 328 328 327 326 323 323 330 330 325 325 325 325 324 322 320 319 319 321 322 320 318 315 314 314
358 358 357 354 349 348 348 348 347 351 356 357 356 356 357 358 357 358 358 357 356 355 353 352 352 351 350 350 349 348 348 348 347 347 346 345 345 345 344 344 342 341 340 338 337 337 337 337 338 337 336 337 339 337 335 335 336 336 336 335 333 331 330 329 329 329 329 329 326 326 332 333 329 328 327 326 325 323 321 320 321 324 324 321 319 318 317 317
360 358 355 352 351 352 352 351 354 359 2 2 2 4 4 4 3 2 2 1 360 357 355 355 354 352 352 351 350 350 349 349 350 350 350 350 350 350 349 348 347 346 345 345 345 345 345 345 345 344 343 344 344 343 342 342 341 341 339 337 335 332 331 329 328 331 334 334 331 330 335 335 331 329 328 327 327 325 322 321 323 326 325 322 321 320 320 319
359 357 354 353 355 356 355 357 3 6 6 7 9 9 8 8 6 5 4 3 1 359 357 356 355 354 353 352 351 351 351 352 353 354 354 353 353 353 352 351 350 350 351 351 350 350 349 349 350 350 349 349 350 350 348 344 342 341 340 339 337 335 334 333 331 335 338 336 332 332 336 336 333 331 330 329 328 326 323 322 325 327 327 324 323 322 320 320
358 354 354 356 358 359 0 6 10 10 10 11 12 11 11 9 8 8 6 4 2 0 359 358 357 356 355 355 355 355 357 358 358 358 357 357 356 355 354 354 354 354 354 354 354 352 351 351 352 354 354 354 354 352 351 348 345 344 344 343 342 340 339 336 335 338 340 337 334 333 335 336 334 332 331 329 329 327 324 324 326 328 328 326 324 323 322 322
355 354 358 1 2 3 8 13 14 13 14 15 15 14 13 11 11 10 7 4 3 1 1 1 359 359 360 1 2 3 4 4 4 3 2 0 360 359 358 358 358 358 358 358 358 357 356 355 355 356 356 354 353 352 352 352 351 351 350 349 347 344 342 339 337 339 341 339 338 335 334 335 334 333 332 330 330 328 326 326 328 329 329 327 326 326 326 325
356 359 3 5 7 11 16 16 15 17 19 19 18 16 14 14 12 10 7 5 4 4 6 5 4 4 6 7 8 9 10 10 9 8 6 5 5 4 3 4 4 4 3 4 4 3 3 1 359 359 358 356 354 354 354 354 354 353 352 351 348 345 344 340 337 340 341 340 340 337 334 334 334 334 333 332 331 330 327 328 330 331 330 330 329 329 328 327
360 4 7 11 14 17 18 17 18 21 22 20 19 18 17 15 12 10 8 7 8 10 11 10 10 11 12 12 12 13 14 13 12 11 10 10 9 9 9 8 8 8 8 8 8 8 7 6 3 2 2 360 358 358 356 355 355 353 352 351 349 346 345 341 338 341 341 339 339 337 335 335 337 337 336 335 334 332 329 329 331 333 332 332 331 331 330 329
4 8 13 17 19 19 18 18 21 24 23 22 21 19 18 15 12 11 11 12 14 15 15 15 15 16 15 15 15 15 15 15 14 14 13 13 12 12 12 11 11 11 10 10 10 10 9 8 6 4 3 2 360 359 358 356 355 353 352 351 350 348 347 342 339 342 342 338 338 338 336 337 339 339 339 337 336 333 330 331 333 335 335 334 333 333 332 331
8 13 18 20 21 20 19 21 24 25 24 23 22 19 17 16 15 16 16 17 18 19 18 18 18 17 16 16 16 16 16 15 15 15 14 14 14 13 13 12 12 12 11 11 10 10 10 9 8 6 4 3 0 359 359 357 355 354 353 352 351 349 348 343 340 342 342 340 339 339 339 340 341 341 340 338 337 335 333 334 335 336 336 335 334 333 332 330
12 18 21 21 21 20 21 25 27 27 25 23 21 20 20 20 20 21 21 21 21 21 20 19 18 17 17 16 16 16 16 16 15 15 15 14 14 14 13 12 12 12 12 11 10 10 10 9 8 7 5 3 1 360 359 357 355 354 353 353 351 350 349 344 341 342 343 341 341 342 342 342 342 342 341 340 339 339 337 336 335 336 337 336 335 334 332 330
17 22 23 23 22 20 24 29 30 28 24 22 22 23 25 25 24 24 25 24 23 21 19 18 17 17 17 16 16 16 16 16 15 14 14 14 14 14 13 12 12 11 11 11 10 10 10 9 8 8 6 4 2 1 359 358 356 355 354 353 351 351 351 346 341 343 343 342 342 342 342 343 342 342 342 342 341 340 337 336 336 336 337 335 334 335 334 331
22 25 25 25 23 23 28 31 30 26 23 23 26 28 28 27 27 27 27 24 22 20 18 17 17 16 16 15 15 15 15 15 15 14 14 14 13 13 13 12 12 11 11 11 10 10 10 9 8 7 6 4 2 1 360 358 356 355 353 352 351 352 353 348 343 344 344 342 343 343 343 343 343 343 343 342 341 338 337 337 337 336 336 335 335 336 336 333
24 27 27 27 25 26 30 32 28 25 25 28 31 30 30 30 29 29 27 23 21 19 17 16 16 15 15 14 14 14 14 14 14 13 13 13 13 13 12 12 12 11 11 11 10 9 9 8 7 6 6 5 3 2 0 358 356 355 353 352 351 352 353 349 343 343 345 344 344 345 344 343 343 342 342 342 341 339 338 339 339 337 336 335 335 336 336 334
Height
10726 10729 10730 10732 10735 10737 10739 10742 10744 10746 10747 10748 10749 10750 10750 10751 10751 10750 10749 10748 10747 10746 10745 10743 10742 10741 10740 10738 10736 10734 10732 10730 10729 10727 10725 10722 10719 10717 10714 10711 10709 10706 10703 10700 10697 10695 10692 10689 10686 10683 10680 10677 10674 10671 10668 10665 10662 10659 10657 10655 10652 10650 10648 10645 10643 10640 10639 10639 10638 10636 10634 10633 10629 10627 10625 10623 10623 10621 10618 10618 10618 10617 10617 10617 10616 10615 10613 10611
10724 10727 10729 10731 10733 10736 10738 10741 10743 10744 10745 10746 10746 10747 10748 10748 10747 10746 10745 10744 10743 10742 10741 10739 10738 10737 10736 10734 10732 10730 10728 10726 10724 10722 10720 10717 10714 10711 10709 10706 10704 10701 10698 10695 10692 10690 10687 10683 10680 10677 10674 10670 10668 10665 10663 10660 10658 10655 10653 10651 10649 10647 10644 10642 10640 10638 10636 10635 10635 10633 10632 10629 10625 10623 10621 10618 10618 10618 10616 10614 10614 10613 10613 10613 10614 10613 10610 10608
10723 10725 10727 10730 10732 10735 10737 10740 10741 10742 10743 10743 10744 10744 10744 10744 10743 10742 10741 10741 10739 10738 10737 10736 10735 10733 10731 10730 10728 10726 10724 10722 10719 10717 10714 10712 10709 10706 10704 10701 10699 10696 10693 10691 10687 10684 10681 10677 10674 10672 10669 10666 10664 10662 10659 10657 10654 10652 10650 10648 10646 10645 10642 10640 10638 10635 10634 10632 10632 10630 10627 10624 10621 10619 10618 10614 10612 10613 10613 10611 10611 10610 10609 10609 10610 10609 10606 10603
10722 10724 10727 10729 10732 10734 10737 10738 10739 10740 10740 10741 10741 10741 10741 10740 10739 10738 10737 10736 10735 10734 10733 10732 10731 10729 10727 10725 10724 10722 10719 10717 10714 10712 10709 10706 10704 10701 10699 10697 10694 10691 10688 10685 10682 10678 10675 10672 10670 10667 10665 10663 10661 10659 10657 10654 10652 10649 10647 10645 10644 10642 10640 10637 10635 10633 10631 10630 10628 10626 10621 10618 10617 10616 10614 10611 10608 10608 10609 10609 10608 10606 10604 10602 10602 10603 10601 10598
10721 10723 10726 10729 10731 10734 10735 10736 10737 10737 10737 10738 10738 10738 10737 10736 10735 10734 10733 10732 10732 10731 10730 10728 10727 10725 10723 10721 10719 10717 10715 10712 10709 10707 10705 10702 10700 10697 10695 10692 10689 10686 10682 10679 10676 10673 10671 10669 10667 10664 10662 10660 10658 10656 10654 10652 10650 10647 10644 10642 10641 10639 10637 10634 10631 10630 10628 10627 10625 10621 10616 10613 10612 10611 10608 10607 10605 10604 10604 10604 10603 10601 10599 10596 10594 10593 10592 10590
10720 10722 10725 10728 10730 10732 10733 10734 10734 10734 10734 10734 10734 10733 10733 10732 10732 10731 10730 10729 10728 10727 10726 10725 10723 10721 10719 10717 10715 10712 10710 10708 10705 10703 10701 10698 10695 10693 10690 10687 10683 10680 10677 10674 10672 10670 10668 10666 10664 10662 10660 10658 10656 10654 10652 10650 10647 10644 10642 10640 10638 10636 10633 10630 10628 10626 10624 10623 10621 10616 10611 10608 10607 10605 10603 10602 10601 10601 10600 10598 10597 10595 10593 10590 10587 10584 10581 10579
10719 10722 10725 10727 10729 10730 10731 10732 10732 10731 10731 10731 10730 10730 10729 10729 10728 10728 10727 10726 10725 10724 10722 10721 10719 10717 10715 10712 10710 10708 10706 10704 10701 10699 10696 10694 10691 10688 10685 10682 10678 10676 10673 10672 10670 10668 10666 10664 10662 10660 10658 10656 10654 10651 10649 10647 10644 10642 10639 10637 10634 10632 10629 10626 10624 10621 10619 10618 10616 10611 10606 10603 10600 10598 10596 10596 10596 10595 10594 10592 10589 10587 10585 10582 10578 10574 10570 10567
10719 10722 10724 10725 10727 10728 10728 10729 10728 10728 10727 10727 10727 10727 10727 10726 10726 10725 10724 10723 10722 10720 10719 10717 10714 10712 10710 10708 10706 10704 10702 10700 10697 10694 10692 10689 10686 10683 10680 10677 10675 10673 10671 10670 10668 10666 10664 10662 10660 10658 10655 10653 10651 10648 10646 10644 10641 10638 10636 10633 10631 10628 10625 10622 10619 10616 10614 10612 10610 10606 10601 10597 10594 10591 10589 10589 10589 10588 10586 10584 10581 10578 10575 10571 10567 10563 10559 10556
10718 10720 10722 10723 10724 10725 10725 10725 10725 10724 10724 10724 10724 10724 10724 10723 10723 10722 10720 10719 10718 10716 10714 10712 10710 10708 10707 10705 10703 10700 10698 10695 10692 10689 10687 10684 10682 10679 10677 10675 10673 10671 10670 10668 10666 10664 10662 10659 10657 10655 10652 10650 10648 10645 10643 10640 10637 10635 10632 10629 10627 10624 10621 10618 10614 10611 10608 10606 10604 10600 10594 10591 10586 10583 10582 10581 10581 10579 10576 10574 10570 10566 10562 10559 10555 10551 10548 10546
10716 10718 10719 10721 10721 10722 10722 10722 10721 10721 10722 10722 10722 10721 10721 10720 10719 10718 10717 10715 10714 10712 10710 10708 10707 10705 10703 10701 10699 10696 10693 10691 10688 10685 10683 10681 10679 10677 10675 10673 10671 10670 10668 10666 10664 10661 10659 10657 10654 10652 10649 10647 10644 10642 10639 10637 10634 10631 10628 10625 10622 10620 10616 10612 10608 10604 10601 10598 10596 10592 10587 10582 10578 10576 10574 10573 10572 10569 10566 10562 10558 10554 10550 10547 10544 10541 10539 10537
10714 10716 10717 10718 10718 10718 10718 10718 10718 10719 10719 10719 10718 10718 10717 10716 10715 10714 10713 10711 10710 10708 10707 10705 10703 10701 10699 10697 10694 10692 10689 10687 10684 10682 10680 10679 10677 10675 10673 10671 10669 10667 10665 10663 10661 10658 10656 10654 10651 10649 10646 10643 10640 10638 10635 10632 10629 10626 10623 10619 10615 10613 10610 10606 10601 10596 10592 10589 10586 10583 10579 10573 10569 10567 10566 10564 10562 10558 10554 10550 10546 10543 10539 10536 10534 10531 10529 10526
10712 10713 10714 10714 10715 10715 10715 10715 10716 10716 10716 10715 10715 10715 10714 10713 10712 10711 10709 10708 10707 10705 10703 10701 10699 10697 10695 10693 10690 10688 10686 10683 10681 10680 10678 10677 10675 10673 10671 10669 10667 10664 10662 10660 10658 10655 10653 10651 10648 10645 10642 10639 10636 10633 10629 10626 10624 10621 10618 10614 10609 10606 10602 10598 10595 10589 10584 10579 10576 10573 10571 10566 10561 10558 10557 10555 10552 10547 10543 10538 10534 10531 10528 10525 10522 10520 10517 10514
10709 10710 10710 10711 10711 10712 10712 10713 10713 10713 10713 10712 10712 10712 10711 10710 10709 10708 10706 10705 10703 10702 10700 10698 10696 10694 10692 10689 10687 10685 10683 10681 10679 10678 10676 10674 10672 10670 10668 10666 10664 10662 10660 10657 10655 10652 10650 10647 10644 10641 10638 10635 10631 10628 10624 10621 10618 10614 10610 10607 10603 10599 10594 10590 10587 10582 10577 10573 10568 10564 10561 10559 10554 10548 10546 10545 10542 10537 10532 10527 10523 10519 10516 10513 10510 10507 10504 10501
10706 10706 10707 10708 10709 10709 10710 10710 10710 10710 10710 10710 10709 10709 10708 10707 10706 10704 10703 10701 10700 10698 10696 10694 10692 10690 10688 10686 10684 10683 10681 10679 10677 10675 10674 10672 10670 10668 10666 10664 10662 10659 10657 10654 10651 10648 10645 10642 10639 10636 10633 10630 10626 10622 10619 10615 10612 10608 10604 10599 10595 10591 10586 10581 10577 10573 10569 10564 10560 10556 10552 10549 10545 10538 10534 10533 10529 10524 10520 10515 10511 10506 10503 10500 10496 10493 10490 10487
10703 10704 10705 10706 10707 10707 10708 10708 10708 10708 10708 10708 10707 10706 10705 10704 10703 10701 10700 10699 10697 10695 10693 10691 10689 10688 10686 10684 10683 10681 10679 10677 10676 10674 10672 10670 10668 10666 10664 10661 10659 10656 10653 10650 10647 10644 10641 10638 10634 10631 10627 10624 10620 10616 10613 10609 10604 10600 10596 10592 10587 10582 10578 10573 10569 10564 10559 10554 10551 10547 10542 10538 10533 10526 10521 10519 10515 10510 10505 10501 10497 10493 10489 10485 10482 10479 10475 10472
10701 10702 10703 10704 10705 10706 10706 10706 10706 10706 10706 10705 10704 10703 10702 10701 10700 10699 10697 10696 10694 10692 10691 10689 10688 10686 10684 10683 10681 10679 10677 10676 10674 10672 10670 10668 10666 10664 10661 10658 10655 10652 10649 10646 10643 10640 10637 10633 10630 10625 10621 10618 10614 10610 10606 10602 10597 10593 10589 10585 10581 10576 10570 10565 10559 10555 10549 10544 10540 10537 10533 10527 10522 10516 10509 10506 10502 10497 10492 10488 10484 10480 10476 10471 10468 10464 10460 10457
10700 10701 10702 10703 10704 10704 10705 10705 10704 10704 10703 10702 10701 10700 10699 10698 10697 10696 10694 10693 10692 10690 10689 10688 10686 10685 10683 10681 10679 10677 10675 10674 10672 10670 10668 10666 10663 10660 10657 10655 10651 10648 10645 10642 10638 10635 10631 10627 10623 10619 10615 10611 10607 10603 10599 10594 10590 10585 10581 10576 10572 10569 10564 10557 10550 10543 10537 10532 10528 10525 10522 10516 10511 10505 10498 10493 10490 10486 10481 10477 10472 10467 10463 10459 10455 10450 10446 10442
10699 10700 10701 10702 10702 10702 10702 10702 10701 10701 10700 10699 10699 10698 10697 10696 10694 10693 10692 10691 10690 10689 10688 10686 10685 10683 10681 10680 10678 10676 10674 10672 10669 10667 10665 10662 10659 10657 10654 10650 10647 10644 10640 10636 10632 10628 10624 10621 10617 10613 10609 10605 10600 10596 10592 10587 10583 10579 10574 10569 10563 10558 10555 10550 10543 10535 10528 10521 10517 10514 10510 10504 10499 10494 10487 10481 10477 10473 10470 10465 10461 10456 10450 10446 10442 10437 10431 10427
10698 10699 10700 10700 10700 10700 10700 10699 10699 10698 10698 10697 10696 10695 10695 10694 10693 10692 10691 10690 10689 10688 10686 10685 10683 10682 10680 10678 10676 10674 10672 10670 10667 10665 10662 10659 10656 10652 10649 10646 10642 10638 10635 10631 10626 10622 10618 10615 10611 10607 10603 10598 10594 10589 10584 10580 10575 10571 10568 10563 10557 10550 10545 10541 10536 10529 10522 10514 10507 10504 10502 10494 10486 10481 10475 10469 10464 10461 10457 10453 10448 10443 10438 10432 10427 10421 10416 10412
10697 10697 10697 10698 10698 10698 10697 10697 10697 10696 10696 10695 10695 10694 10694 10693 10692 10692 10691 10689 10688 10687 10685 10683 10682 10680 10678 10676 10674 10672 10669 10667 10664 10661 10658 10655 10651 10648 10644 10640 10637 10633 10629 10625 10621 10617 10613 10609 10605 10601 10597 10592 10587 10583 10578 10573 10568 10564 10559 10555 10549 10543 10537 10532 10528 10522 10515 10508 10499 10494 10492 10486 10477 10470 10463 10456 10451 10447 10443 10438 10433 10429 10425 10419 10412 10406 10401 10396
10695 10695 10696 10696 10696 10696 10696 10695 10695 10695 10695 10695 10695 10694 10694 10693 10692 10691 10690 10688 10687 10685 10684 10682 10680 10679 10677 10674 10672 10669 10666 10663 10660 10657 10653 10649 10646 10642 10639 10635 10631 10628 10624 10620 10616 10611 10606 10602 10598 10594 10590 10586 10581 10576 10571 10566 10561 10556 10551 10546 10541 10537 10530 10522 10517 10513 10506 10499 10491 10484 10480 10477 10469 10460 10452 10444 10438 10433 10428 10421 10416 10412 10407 10402 10397 10391 10385 10379
10693 10694 10694 10694 10695 10695 10695 10695 10695 10695 10695 10695 10695 10695 10694 10693 10691 10690 10689 10687 10686 10684 10682 10680 10678 10676 10674 10671 10668 10665 10662 10659 10655 10652 10648 10644 10641 10637 10634 10630 10626 10622 10618 10614 10610 10605 10601 10596 10591 10587 10583 10578 10573 10568 10563 10559 10554 10549 10544 10538 10534 10529 10524 10516 10507 10501 10496 10489 10481 10475 10470 10465 10459 10451 10442 10434 10428 10422 10415 10408 10401 10395 10389 10385 10380 10375 10369 10362
10692 10693 10694 10695 10695 10696 10696 10696 10696 10696 10696 10696 10695 10694 10693 10692 10691 10690 10688 10687 10685 10683 10681 10678 10676 10674 10671 10667 10664 10661 10657 10654 10651 10647 10643 10639 10636 10632 10629 10625 10621 10617 10613 10608 10603 10599 10594 10589 10584 10580 10576 10571 10566 10561 10556 10551 10546 10541 10536 10531 10526 10520 10516 10512 10503 10494 10486 10478 10471 10466 10462 10456 10449 10442 10433 10424 10419 10413 10405 10397 10390 10383 10376 10370 10364 10359 10353 10347
10693 10694 10695 10696 10696 10696 10696 10696 10696 10696 10696 10695 10695 10694 10693 10691 10690 10689 10687 10685 10683 10681 10678 10676 10673 10670 10667 10664 10660 10657 10653 10650 10646 10643 10639 10635 10631 10627 10624 10620 10616 10612 10607 10603 10598 10593 10588 10583 10579 10574 10569 10565 10559 10553 10548 10543 10538 10533 10528 10523 10518 10512 10505 10500 10496 10489 10480 10470 10460 10455 10453 10448 10441 10432 10422 10415 10410 10403 10396 10388 10381 10373 10365 10357 10350 10344 10338 10332
10695 10695 10696 10697 10697 10697 10697 10697 10697 10696 10696 10695 10694 10693 10692 10691 10689 10687 10686 10683 10681 10678 10675 10672 10670 10666 10663 10660 10656 10653 10649 10645 10642 10638 10634 10630 10626 10622 10618 10614 10610 10606 10602 10597 10592 10587 10583 10578 10573 10568 10563 10558 10553 10547 10542 10537 10531 10525 10520 10514 10509 10503 10496 10489 10484 10480 10473 10464 10453 10446 10443 10440 10435 10424 10412 10405 10399 10391 10384 10376 10369 10360 10353 10344 10336 10329 10322 10315
10696 10697 10697 10697 10698 10698 10697 10697 10697 10696 10695 10695 10694 10692 10691 10689 10687 10685 10683 10680 10677 10675 10672 10669 10666 10663 10659 10656 10652 10648 10645 10641 10637 10633 10629 10625 10621 10617 10613 10609 10605 10601 10596 10592 10587 10582 10576 10571 10566 10562 10557 10551 10546 10540 10535 10530 10525 10518 10512 10506 10500 10494 10488 10481 10475 10468 10463 10455 10445 10437 10430 10427 10424 10413 10402 10395 10386 10378 10370 10361 10354 10346 10338 10330 10322 10314 10306 10299
10697 10698 10698 10698 10698 10698 10698 10697 10696 10696 10695 10693 10692 10690 10689 10687 10684 10682 10680 10677 10674 10671 10668 10665 10662 10658 10655 10651 10647 10644 10640 10636 10632 10628 10624 10620 10617 10613 10609 10604 10599 10595 10590 10585 10581 10576 10570 10566 10560 10555 10550 10544 10539 10533 10527 10522 10517 10511 10505 10498 10492 10485 10479 10472 10465 10459 10453 10444 10434 10427 10418 10415 10413 10399 10387 10382 10372 10365 10358 10348 10340 10332 10324 10317 10309 10301 10294 10287
10698 10698 10699 10699 10699 10698 10697 10697 10695 10694 10693 10692 10690 10688 10686 10684 10682 10679 10677 10674 10671 10668 10664 10661 10658 10654 10651 10647 10643 10639 10636 10632 10627 10624 10620 10616 10613 10608 10604 10600 10595 10590 10585 10580 10575 10570 10564 10559 10553 10548 10542 10536 10531 10525 10519 10514 10508 10503 10497 10490 10483 10477 10470 10462 10456 10449 10443 10434 10423 10416 10407 10403 10403 10389 10374 10369 10361 10352 10346 10337 10329 10320 10312 10304 10296 10289 10282 10275
10699 10699 10699 10699 10698 10698 10697 10695 10694 10693 10691 10690 10688 10686 10684 10681 10679 10677 10674 10671 10668 10665 10661 10657 10654 10651 10647 10643 10639 10635 10631 10627 10623 10619 10614 10610 10606 10602 10599 10595 10591 10586 10580 10574 10569 10563 10558 10553 10546 10540 10534 10528 10522 10516 10511 10505 10499 10493 10488 10482 10475 10468 10461 10453 10446 10440 10435 10425 10412 10406 10397 10388 10389 10381 10363 10354 10348 10341 10334 10326 10317 10309 10299 10291 10284 10277 10270 10264
10700 10700 10699 10698 10698 10696 10695 10694 10692 10691 10689 10688 10685 10683 10681 10678 10676 10673 10670 10668 10664 10661 10658 10654 10651 10647 10643 10639 10635 10632 10628 10624 10620 10615 10611 10606 10601 10597 10593 10589 10585 10581 10575 10569 10563 10557 10551 10545 10539 10533 10526 10520 10513 10507 10501 10495 10489 10483 10478 10474 10467 10460 10452 10444 10437 10431 10426 10418 10405 10398 10391 10377 10371 10368 10357 10345 10337 10331 10324 10316 10307 10297 10287 10278 10272 10265 10257 10250
10700 10699 10698 10697 10696 10695 10694 10692 10691 10689 10687 10685 10683 10681 10678 10675 10673 10670 10667 10664 10661 10658 10655 10651 10648 10644 10640 10637 10633 10629 10625 10620 10616 10611 10607 10602 10597 10591 10586 10580 10575 10571 10566 10561 10556 10550 10544 10538 10532 10526 10519 10512 10505 10497 10491 10485 10479 10474 10468 10463 10458 10453 10448 10440 10433 10426 10419 10411 10397 10390 10385 10369 10356 10351 10345 10336 10327 10318 10311 10302 10292 10283 10274 10267 10260 10252 10244 10236
10699 10698 10697 10696 10695 10694 10692 10690 10689 10687 10685 10683 10680 10678 10676 10673 10671 10668 10665 10662 10658 10655 10651 10648 10645 10641 10637 10634 10629 10625 10621 10616 10612 10606 10602 10596 10591 10585 10580 10575 10570 10565 10560 10554 10549 10544 10538 10532 10526 10520 10513 10506 10499 10491 10484 10477 10471 10466 10459 10452 10447 10443 10440 10435 10429 10424 10418 10406 10391 10382 10377 10365 10351 10340 10333 10328 10320 10310 10299 10287 10276 10267 10260 10255 10247 10239 10232 10222
10698 10697 10696 10695 10694 10692 10690 10688 10687 10685 10683 10680 10678 10676 10673 10671 10668 10665 10662 10659 10655 10652 10649 10645 10642 10638 10634 10629 10625 10621 10617 10612 10608 10603 10598 10593 10589 10584 10579 10574 10568 10562 10556 10550 10544 10538 10532 10526 10519 10513 10507 10500 10494 10488 10481 10474 10467 10460 10451 10442 10434 10428 10424 10419 10414 10410 10409 10403 10388 10374 10363 10354 10345 10335 10326 10322 10315 10303 10291 10276 10264 10256 10249 10244 10236 10227 10218 10208
10697 10696 10695 10693 10692 10690 10688 10687 10685 10683 10680 10678 10676 10674 10671 10669 10665 10662 10659 10655 10652 10649 10646 10642 10638 10634 10630 10626 10621 10617 10613 10609 10604 10600 10595 10590 10585 10580 10575 10569 10563 10556 10550 10543 10537 10531 10526 10520 10514 10508 10501 10494 10488 10482 10475 10468 10460 10452 10442 10432 10422 10412 10406 10400 10392 10386 10385 10386 10379 10364 10349 10335 10325 10320 10314 10308 10300 10289 10278 10265 10253 10245 10238 10232 10224 10213 10203 10194
10696 10695 10693 10692 10690 10689 10687 10685 10683 10681 10678 10676 10674 10671 10668 10665 10662 10659 10656 10653 10649 10646 10642 10638 10635 10631 10626 10622 10618 10614 10610 10605 10601 10596 10591 10585 10580 10575 10569 10563 10557 10550 10544 10537 10530 10524 10519 10513 10507 10501 10495 10488 10481 10475 10468 10460 10453 10445 10434 10424 10414 10405 10398 10390 10381 10372 10366 10366 10363 10352 10339 10319 10303 10303 10300 10292 10284 10273 10260 10249 10238 10230 10224 10216 10207 10198 10188 10178
10695 10693 10692 10691 10689 10687 10685 10683 10681 10679 10677 10674 10671 10668 10665 10662 10659 10656 10653 10650 10646 10643 10639 10636 10632 10628 10624 10620 10615 10611 10607 10602 10597 10592 10587 10582 10576 10571 10565 10558 10552 10546 10539 10533 10526 10518 10512 10506 10500 10494 10488 10481 10474 10468 10462 10454 10445 10437 10427 10417 10409 10399 10391 10381 10375 10368 10359 10357 10351 10340 10330 10309 10289 10289 10287 10278 10270 10258 10245 10234 10222 10214 10209 10201 10191 10183 10174 10164
10694 10692 10691 10689 10687 10686 10684 10682 10680 10677 10674 10671 10668 10665 10662 10660 10657 10654 10651 10647 10644 10641 10637 10633 10630 10625 10621 10617 10612 10608 10603 10598 10594 10588 10583 10577 10571 10566 10560 10554 10548 10542 10535 10529 10523 10515 10508 10501 10495 10489 10481 10474 10468 10462 10456 10447 10437 10428 10419 10411 10403 10394 10384 10372 10364 10359 10352 10349 10343 10332 10318 10296 10279 10275 10270 10260 10251 10239 10228 10219 10209 10202 10195 10187 10178 10168 10159 10150
10693 10691 10690 10688 10686 10684 10682 10680 10677 10675 10672 10668 10665 10663 10660 10658 10655 10652 10648 10645 10642 10638 10634 10630 10626 10622 10618 10613 10609 10604 10600 10595 10590 10584 10579 10573 10567 10561 10556 10550 10543 10538 10532 10525 10519 10512 10505 10497 10490 10484 10477 10469 10463 10456 10448 10440 10430 10420 10411 10403 10394 10385 10378 10365 10351 10342 10335 10331 10328 10325 10311 10284 10267 10263 10254 10245 10234 10220 10210 10202 10194 10189 10181 10171 10163 10153 10145 10138
10692 10690 10688 10686 10685 10683 10680 10677 10675 10672 10668 10665 10663 10661 10659 10656 10653 10650 10646 10643 10639 10635 10631 10628 10624 10620 10616 10611 10607 10602 10597 10592 10586 10581 10575 10569 10564 10558 10552 10546 10540 10534 10528 10522 10516 10509 10501 10494 10486 10479 10472 10465 10459 10451 10442 10433 10425 10416 10407 10399 10388 10377 10369 10359 10346 10333 10324 10317 10310 10310 10302 10274 10252 10248 10240 10232 10221 10203 10191 10184 10180 10176 10168 10157 10147 10137 10131 10125
10690 10689 10687 10685 10683 10681 10678 10675 10672 10669 10666 10664 10662 10660 10657 10654 10651 10648 10644 10640 10637 10633 10630 10626 10622 10618 10614 10609 10605 10600 10594 10589 10584 10578 10572 10566 10560 10554 10548 10542 10536 10531 10525 10518 10512 10505 10498 10491 10484 10476 10468 10462 10455 10447 10437 10428 10419 10411 10402 10394 10384 10372 10363 10356 10348 10335 10322 10311 10296 10291 10289 10268 10245 10237 10229 10221 10211 10192 10175 10168 10166 10165 10156 10143 10133 10123 10116 10110
10689 10687 10686 10684 10681 10678 10676 10673 10670 10667 10665 10663 10661 10658 10655 10652 10649 10646 10642 10638 10635 10632 10628 10625 10621 10616 10612 10607 10603 10598 10593 10588 10582 10576 10570 10563 10557 10551 10545 10540 10534 10528 10522 10515 10508 10501 10494 10487 10481 10473 10465 10459 10451 10441 10432 10422 10414 10405 10396 10387 10377 10366 10357 10348 10341 10333 10318 10303 10289 10279 10274 10257 10237 10227 10219 10210 10202 10184 10166 10156 10155 10155 10145 10131 10122 10113 10105 10098
10688 10686 10684 10682 10679 10677 10674 10671 10668 10666 10664 10662 10659 10657 10654 10651 10647 10644 10641 10637 10634 10631 10627 10624 10619 10615 10610 10606 10601 10596 10591 10586 10580 10574 10568 10561 10555 10550 10544 10538 10531 10525 10518 10511 10504 10496 10490 10483 10476 10467 10458 10451 10443 10435 10426 10417 10410 10402 10391 10382 10372 10360 10349 10336 10327 10323 10312 10296 10285 10278 10271 10251 10228 10214 10205 10197 10190 10174 10155 10144 10142 10142 10135 10121 10110 10103 10096 10090
10687 10685 10683 10681 10678 10675 10673 10670 10667 10665 10663 10661 10658 10655 10652 10649 10646 10643 10640 10637 10634 10631 10627 10623 10618 10614 10609 10605 10600 10595 10590 10584 10578 10572 10566 10560 10554 10548 10542 10535 10528 10521 10514 10507 10499 10491 10484 10478 10472 10465 10455 10447 10439 10431 10423 10413 10405 10398 10388 10378 10366 10353 10343 10330 10318 10313 10305 10288 10273 10269 10271 10256 10230 10211 10197 10187 10181 10168 10148 10135 10130 10128 10124 10114 10103 10092 10084 10079
10686 10684 10682 10679 10676 10674 10671 10668 10667 10665 10662 10660 10657 10654 10651 10648 10645 10642 10639 10637 10634 10630 10627 10622 10618 10613 10609 10604 10599 10594 10588 10582 10576 10570 10564 10558 10552 10545 10539 10531 10524 10517 10509 10502 10494 10485 10477 10468 10463 10458 10452 10446 10438 10428 10419 10408 10396 10386 10377 10367 10357 10345 10334 10321 10311 10307 10301 10285 10264 10252 10256 10254 10232 10212 10196 10181 10171 10160 10143 10130 10122 10115 10108 10103 10095 10084 10073 10066
10685 10682 10680 10677 10675 10672 10669 10668 10666 10664 10661 10658 10656 10653 10650 10647 10644 10642 10639 10637 10633 10629 10626 10621 10617 10612 10607 10603 10598 10592 10586 10580 10574 10569 10562 10556 10549 10542 10535 10527 10519 10512 10504 10496 10488 10480 10471 10460 10451 10445 10438 10431 10423 10412 10402 10393 10384 10374 10365 10356 10347 10337 10325 10310 10301 10297 10291 10281 10264 10242 10237 10242 10231 10210 10195 10178 10162 10149 10135 10125 10118 10109 10097 10088 10081 10074 10066 10058
10683 10681 10679 10676 10673 10671 10669 10667 10665 10663 10660 10658 10655 10653 10650 10647 10645 10642 10639 10636 10632 10629 10625 10620 10615 10610 10605 10600 10595 10590 10584 10579 10572 10567 10560 10553 10546 10538 10530 10523 10515 10508 10499 10492 10484 10475 10467 10457 10445 10436 10428 10419 10410 10402 10392 10382 10375 10366 10358 10350 10340 10330 10319 10303 10291 10286 10278 10272 10265 10243 10220 10217 10213 10198 10184 10171 10156 10138 10124 10115 10111 10103 10092 10080 10071 10063 10055 10047
10682 10680 10677 10675 10673 10671 10669 10667 10664 10662 10660 10657 10655 10652 10650 10648 10645 10643 10639 10635 10632 10628 10624 10619 10614 10609 10604 10598 10593 10587 10582 10576 10570 10564 10557 10550 10542 10535 10527 10519 10512 10504 10496 10488 10480 10471 10463 10454 10444 10433 10424 10416 10407 10399 10390 10379 10371 10362 10352 10344 10333 10324 10315 10299 10284 10277 10267 10257 10255 10245 10221 10204 10197 10186 10171 10160 10150 10134 10119 10108 10100 10093 10083 10072 10062 10053 10045 10038
10681 10679 10677 10675 10673 10671 10669 10667 10664 10661 10659 10657 10655 10653 10651 10649 10646 10643 10639 10635 10631 10627 10623 10618 10613 10608 10603 10597 10591 10585 10579 10573 10567 10561 10554 10547 10539 10532 10524 10517 10509 10501 10493 10485 10477 10469 10461 10452 10443 10433 10423 10415 10405 10397 10389 10378 10368 10358 10348 10337 10326 10317 10309 10295 10280 10273 10261 10243 10234 10230 10216 10197 10183 10173 10161 10151 10143 10129 10111 10098 10090 10083 10075 10065 10055 10046 10038 10032
10681 10679 10677 10675 10673 10671 10669 10666 10663 10661 10660 10658 10656 10654 10652 10649 10646 10642 10639 10635 10631 10626 10622 10617 10613 10607 10602 10596 10590 10584 10578 10572 10565 10559 10552 10545 10538 10530 10522 10515 10507 10499 10491 10484 10475 10466 10458 10450 10441 10432 10423 10414 10404 10394 10385 10375 10365 10355 10344 10333 10323 10312 10301 10286 10274 10269 10259 10241 10224 10213 10205 10192 10178 10166 10151 10136 10127 10116 10102 10089 10081 10074 10068 10060 10052 10043 10033 10025
10681 10679 10677 10675 10673 10671 10668 10665 10663 10662 10661 10660 10657 10655 10652 10649 10645 10642 10638 10634 10630 10626 10622 10617 10612 10607 10601 10596 10590 10584 10578 10571 10564 10557 10550 10543 10536 10529 10521 10513 10505 10497 10489 10481 10472 10463 10455 10446 10438 10430 10421 10412 10403 10392 10381 10371 10361 10351 10340 10330 10319 10308 10296 10278 10263 10258 10252 10242 10227 10210 10198 10187 10175 10162 10146 10126 10112 10105 10097 10086 10076 10069 10063 10057 10050 10043 10032 10021
10681 10679 10677 10675 10673 10670 10667 10666 10665 10664 10662 10660 10657 10654 10651 10648 10645 10641 10638 10634 10630 10626 10621 10617 10612 10606 10601 10596 10590 10583 10577 10570 10563 10556 10549 10542 10534 10527 10519 10511 10503 10494 10486 10477 10469 10460 10452 10443 10436 10428 10419 10409 10399 10389 10380 10370 10358 10347 10337 10327 10314 10301 10289 10270 10251 10241 10233 10224 10217 10204 10188 10175 10165 10155 10145 10130 10116 10104 10093 10082 10070 10061 10054 10046 10039 10035 10028 10018
10680 10678 10677 10675 10672 10670 10668 10667 10666 10665 10663 10660 10657 10654 10651 10648 10645 10642 10638 10634 10630 10626 10621 10616 10611 10606 10601 10595 10589 10582 10576 10569 10562 10555 10548 10540 10532 10524 10516 10508 10500 10491 10482 10473 10465 10456 10449 10441 10433 10426 10417 10408 10397 10386 10375 10364 10354 10344 10333 10321 10308 10296 10287 10271 10251 10238 10225 10208 10197 10189 10179 10171 10162 10152 10144 10136 10122 10105 10091 10078 10064 10052 10045 10036 10029 10025 10021 10014